{"data":{"norad_id":64313,"intl_designator":"2025-123Y","name":"STARLINK-34358","alt_names":[],"object_type":"PAYLOAD","status":"ACTIVE","operator":null,"country":"US","launch_date":"2025-06-08","launch_site_code":"AFWTR","launch_vehicle":null,"mission":null,"orbit_class":"UNKNOWN","rcs_meters":null,"size_class":null,"mass_kg":null,"dimensions":null,"purposes":["comms"],"wikipedia_slug":null,"has_3d_model":false,"image_url":null,"decayed_at":null,"tle_current":{"epoch":"2026-05-25T00:46:01.748352Z","epoch_age_seconds":71983,"freshness":"FRESH","line1":"1 64313U 25123Y   26145.03196468  .00003383  00000+0  29117-3 0  9994","line2":"2 64313  70.0015   1.9821 0002457 270.1149  89.9728 14.98337512 53054","mean_motion":14.98337512,"eccentricity":0.0002457,"inclination_deg":70.0015,"raan_deg":1.9821,"arg_perigee_deg":270.1149,"mean_anomaly_deg":89.9728,"bstar":0.00029117,"rev_number":5305,"period_min":96.106517287809,"perigee_km":570.32500411548,"apogee_km":573.7403174868,"semimajor_km":6950.1696608011,"source":"CELESTRAK","updated_at":"2026-05-25T13:38:20.391042Z"}}}